date,time,water_lv
2023-11-01,00:00:00,7.469
2023-11-01,00:10:00,7.47
2023-11-01,00:20:00,7.475
2023-11-01,00:30:00,7.474
2023-11-01,00:40:00,7.474
2023-11-01,00:50:00,7.471
2023-11-01,01:00:00,7.472
2023-11-01,01:10:00,7.483
2023-11-01,01:20:00,7.475
2023-11-01,01:30:00,7.48
2023-11-01,01:40:00,7.478
2023-11-01,01:50:00,7.476
2023-11-01,02:00:00,7.478
2023-11-01,02:10:00,7.485
2023-11-01,02:20:00,7.482
2023-11-01,02:30:00,7.483
2023-11-01,02:40:00,7.485
2023-11-01,02:50:00,7.483
2023-11-01,03:00:00,7.485
2023-11-01,03:10:00,7.485
2023-11-01,03:20:00,7.485
2023-11-01,03:30:00,7.487
2023-11-01,03:40:00,7.488
2023-11-01,03:50:00,7.489
2023-11-01,04:00:00,7.487
2023-11-01,04:10:00,7.489
2023-11-01,04:20:00,7.489
2023-11-01,04:30:00,7.49
2023-11-01,04:40:00,7.492
2023-11-01,04:50:00,7.488
2023-11-01,05:00:00,7.483
2023-11-01,05:10:00,7.494
2023-11-01,05:20:00,7.49
2023-11-01,05:30:00,7.489
2023-11-01,05:40:00,7.492
2023-11-01,05:50:00,7.492
2023-11-01,06:00:00,7.494
2023-11-01,06:10:00,7.494
2023-11-01,06:20:00,7.495
2023-11-01,06:30:00,7.494
2023-11-01,06:40:00,7.489
2023-11-01,06:50:00,7.491
2023-11-01,07:00:00,7.495
2023-11-01,07:10:00,7.497
2023-11-01,07:20:00,7.494
2023-11-01,07:30:00,7.492
2023-11-01,07:40:00,7.496
2023-11-01,07:50:00,7.495
2023-11-01,08:00:00,7.488
2023-11-01,08:10:00,7.489
2023-11-01,08:20:00,7.491
2023-11-01,08:30:00,7.49
2023-11-01,08:40:00,7.49
2023-11-01,08:50:00,7.489
2023-11-01,09:00:00,7.49
2023-11-01,09:10:00,7.491
2023-11-01,09:20:00,7.49
2023-11-01,09:30:00,7.491
2023-11-01,09:40:00,7.49
2023-11-01,09:50:00,7.485
2023-11-01,10:00:00,7.487
2023-11-01,10:10:00,7.49
2023-11-01,10:20:00,7.488
2023-11-01,10:30:00,7.491
2023-11-01,10:40:00,7.49
2023-11-01,10:50:00,7.489
2023-11-01,11:00:00,7.484
2023-11-01,11:10:00,7.484
2023-11-01,11:20:00,7.485
2023-11-01,11:30:00,7.489
2023-11-01,11:40:00,7.481
2023-11-01,11:50:00,7.485
2023-11-01,12:00:00,7.485
2023-11-01,12:10:00,7.485
2023-11-01,12:20:00,7.485
2023-11-01,12:30:00,7.487
2023-11-01,12:40:00,7.485
2023-11-01,12:50:00,7.483
2023-11-01,13:00:00,7.485
2023-11-01,13:10:00,7.484
2023-11-01,13:20:00,7.483
2023-11-01,13:30:00,7.488
2023-11-01,13:40:00,7.483
2023-11-01,13:50:00,7.49
2023-11-01,14:00:00,7.487
2023-11-01,14:10:00,7.489
2023-11-01,14:20:00,7.488
2023-11-01,14:30:00,7.489
2023-11-01,14:40:00,7.488
2023-11-01,14:50:00,7.487
2023-11-01,15:00:00,7.484
2023-11-01,15:10:00,7.487
2023-11-01,15:20:00,7.485
2023-11-01,15:30:00,7.49
2023-11-01,15:40:00,7.492
2023-11-01,15:50:00,7.491
2023-11-01,16:00:00,7.49
2023-11-01,16:10:00,7.489
2023-11-01,16:20:00,7.485
2023-11-01,16:30:00,7.49
2023-11-01,16:40:00,7.491
2023-11-01,16:50:00,7.488
2023-11-01,17:00:00,7.494
2023-11-01,17:10:00,7.492
2023-11-01,17:20:00,7.492
2023-11-01,17:30:00,7.492
2023-11-01,17:40:00,7.494
2023-11-01,17:50:00,7.501
2023-11-01,18:00:00,7.495
2023-11-01,18:10:00,7.499
2023-11-01,18:20:00,7.502
2023-11-01,18:30:00,7.496
2023-11-01,18:40:00,7.503
2023-11-01,18:50:00,7.502
2023-11-01,19:00:00,7.499
2023-11-01,19:10:00,7.503
2023-11-01,19:20:00,7.501
2023-11-01,19:30:00,7.502
2023-11-01,19:40:00,7.506
2023-11-01,19:50:00,7.505
2023-11-01,20:00:00,7.502
2023-11-01,20:10:00,7.503
2023-11-01,20:20:00,7.503
2023-11-01,20:30:00,7.508
2023-11-01,20:40:00,7.506
2023-11-01,20:50:00,7.505
2023-11-01,21:00:00,7.508
2023-11-01,21:10:00,7.506
2023-11-01,21:20:00,7.511
2023-11-01,21:30:00,7.511
2023-11-01,21:40:00,7.509
2023-11-01,21:50:00,7.515
2023-11-01,22:00:00,7.512
2023-11-01,22:10:00,7.515
2023-11-01,22:20:00,7.515
2023-11-01,22:30:00,7.517
2023-11-01,22:40:00,7.518
2023-11-01,22:50:00,7.518
2023-11-01,23:00:00,7.518
2023-11-01,23:10:00,7.523
2023-11-01,23:20:00,7.523
2023-11-01,23:30:00,7.525
2023-11-01,23:40:00,7.528
2023-11-01,23:50:00,7.529
2023-11-02,00:00:00,7.535
2023-11-02,00:10:00,7.53
2023-11-02,00:20:00,7.536
2023-11-02,00:30:00,7.538
2023-11-02,00:40:00,7.543
2023-11-02,00:50:00,7.547
2023-11-02,01:00:00,7.546
2023-11-02,01:10:00,7.551
2023-11-02,01:20:00,7.549
2023-11-02,01:30:00,7.555
2023-11-02,01:40:00,7.558
2023-11-02,01:50:00,7.559
2023-11-02,02:00:00,7.558
2023-11-02,02:10:00,7.563
2023-11-02,02:20:00,7.569
2023-11-02,02:30:00,7.571
2023-11-02,02:40:00,7.573
2023-11-02,02:50:00,7.577
2023-11-02,03:00:00,7.58
2023-11-02,03:10:00,7.579
2023-11-02,03:20:00,7.586
2023-11-02,03:30:00,7.588
2023-11-02,03:40:00,7.592
2023-11-02,03:50:00,7.597
2023-11-02,04:00:00,7.598
2023-11-02,04:10:00,7.601
2023-11-02,04:20:00,7.604
2023-11-02,04:30:00,7.607
2023-11-02,04:40:00,7.612
2023-11-02,04:50:00,7.618
2023-11-02,05:00:00,7.619
2023-11-02,05:10:00,7.624
2023-11-02,05:20:00,7.627
2023-11-02,05:30:00,7.634
2023-11-02,05:40:00,7.633
2023-11-02,05:50:00,7.638
2023-11-02,06:00:00,7.638
2023-11-02,06:10:00,7.642
2023-11-02,06:20:00,7.648
2023-11-02,06:30:00,7.646
2023-11-02,06:40:00,7.653
2023-11-02,06:50:00,7.656
2023-11-02,07:00:00,7.655
2023-11-02,07:10:00,7.661
2023-11-02,07:20:00,7.661
2023-11-02,07:30:00,7.662
2023-11-02,07:40:00,7.668
2023-11-02,07:50:00,7.675
2023-11-02,08:00:00,7.676
2023-11-02,08:10:00,7.679
2023-11-02,08:20:00,7.679
2023-11-02,08:30:00,7.686
2023-11-02,08:40:00,7.685
2023-11-02,08:50:00,7.685
2023-11-02,09:00:00,7.695
2023-11-02,09:10:00,7.694
2023-11-02,09:20:00,7.702
2023-11-02,09:30:00,7.709
2023-11-02,09:40:00,7.709
2023-11-02,09:50:00,7.708
2023-11-02,10:00:00,7.716
2023-11-02,10:10:00,7.721
2023-11-02,10:20:00,7.723
2023-11-02,10:30:00,7.727
2023-11-02,10:40:00,7.731
2023-11-02,10:50:00,7.734
2023-11-02,11:00:00,7.741
2023-11-02,11:10:00,7.742
2023-11-02,11:20:00,7.75
2023-11-02,11:30:00,7.75
2023-11-02,11:40:00,7.76
2023-11-02,11:50:00,7.76
2023-11-02,12:00:00,7.763
2023-11-02,12:10:00,7.765
2023-11-02,12:20:00,7.777
2023-11-02,12:30:00,7.774
2023-11-02,12:40:00,7.783
2023-11-02,12:50:00,7.783
2023-11-02,13:00:00,7.783
2023-11-02,13:10:00,7.79
2023-11-02,13:20:00,7.794
2023-11-02,13:30:00,7.797
2023-11-02,13:40:00,7.803
2023-11-02,13:50:00,7.808
2023-11-02,14:00:00,7.806
2023-11-02,14:10:00,7.816
2023-11-02,14:20:00,7.822
2023-11-02,14:30:00,7.823
2023-11-02,14:40:00,7.823
2023-11-02,14:50:00,7.83
2023-11-02,15:00:00,7.831
2023-11-02,15:10:00,7.838
2023-11-02,15:20:00,7.839
2023-11-02,15:30:00,7.842
2023-11-02,15:40:00,7.851
2023-11-02,15:50:00,7.851
2023-11-02,16:00:00,7.856
2023-11-02,16:10:00,7.859
2023-11-02,16:20:00,7.863
2023-11-02,16:30:00,7.87
2023-11-02,16:40:00,7.871
2023-11-02,16:50:00,7.872
2023-11-02,17:00:00,7.881
2023-11-02,17:10:00,7.887
2023-11-02,17:20:00,7.886
2023-11-02,17:30:00,7.893
2023-11-02,17:40:00,7.899
2023-11-02,17:50:00,7.904
2023-11-02,18:00:00,7.911
2023-11-02,18:10:00,7.912
2023-11-02,18:20:00,7.918
2023-11-02,18:30:00,7.92
2023-11-02,18:40:00,7.925
2023-11-02,18:50:00,7.928
2023-11-02,19:00:00,7.932
2023-11-02,19:10:00,7.938
2023-11-02,19:20:00,7.942
2023-11-02,19:30:00,7.947
2023-11-02,19:40:00,7.951
2023-11-02,19:50:00,7.959
2023-11-02,20:00:00,7.959
2023-11-02,20:10:00,7.963
2023-11-02,20:20:00,7.968
2023-11-02,20:30:00,7.976
2023-11-02,20:40:00,7.976
2023-11-02,20:50:00,7.98
2023-11-02,21:00:00,7.987
2023-11-02,21:10:00,7.99
2023-11-02,21:20:00,7.996
2023-11-02,21:30:00,7.996
2023-11-02,21:40:00,8.001
2023-11-02,21:50:00,8.005
2023-11-02,22:00:00,8.008
2023-11-02,22:10:00,8.009
2023-11-02,22:20:00,8.019
2023-11-02,22:30:00,8.021
2023-11-02,22:40:00,8.027
2023-11-02,22:50:00,8.033
2023-11-02,23:00:00,8.035
2023-11-02,23:10:00,8.04
2023-11-02,23:20:00,8.046
2023-11-02,23:30:00,8.047
2023-11-02,23:40:00,8.056
2023-11-02,23:50:00,8.053
2023-11-03,00:00:00,8.057
2023-11-03,00:10:00,8.062
2023-11-03,00:20:00,8.07
2023-11-03,00:30:00,8.072
2023-11-03,00:40:00,8.078
2023-11-03,00:50:00,8.083
2023-11-03,01:00:00,8.085
2023-11-03,01:10:00,8.087
2023-11-03,01:20:00,8.094
2023-11-03,01:30:00,8.098
2023-11-03,01:40:00,8.098
2023-11-03,01:50:00,8.102
2023-11-03,02:00:00,8.109
2023-11-03,02:10:00,8.112
2023-11-03,02:20:00,8.117
2023-11-03,02:30:00,8.119
2023-11-03,02:40:00,8.123
2023-11-03,02:50:00,8.129
2023-11-03,03:00:00,8.131
2023-11-03,03:10:00,8.133
2023-11-03,03:20:00,8.142
2023-11-03,03:30:00,8.142
2023-11-03,03:40:00,8.149
2023-11-03,03:50:00,8.151
2023-11-03,04:00:00,8.155
2023-11-03,04:10:00,8.155
2023-11-03,04:20:00,8.162
2023-11-03,04:30:00,8.164
2023-11-03,04:40:00,8.172
2023-11-03,04:50:00,8.173
2023-11-03,05:00:00,8.174
2023-11-03,05:10:00,8.178
2023-11-03,05:20:00,8.181
2023-11-03,05:30:00,8.184
2023-11-03,05:40:00,8.188
2023-11-03,05:50:00,8.191
2023-11-03,06:00:00,8.197
2023-11-03,06:10:00,8.2
2023-11-03,06:20:00,8.204
2023-11-03,06:30:00,8.21
2023-11-03,06:40:00,8.211
2023-11-03,06:50:00,8.213
2023-11-03,07:00:00,8.22
2023-11-03,07:10:00,8.222
2023-11-03,07:20:00,8.221
2023-11-03,07:30:00,8.225
2023-11-03,07:40:00,8.231
2023-11-03,07:50:00,8.232
2023-11-03,08:00:00,8.239
2023-11-03,08:10:00,8.237
2023-11-03,08:20:00,8.24
2023-11-03,08:30:00,8.241
2023-11-03,08:40:00,8.246
2023-11-03,08:50:00,8.249
2023-11-03,09:00:00,8.254
2023-11-03,09:10:00,8.255
2023-11-03,09:20:00,8.258
2023-11-03,09:30:00,8.262
2023-11-03,09:40:00,8.265
2023-11-03,09:50:00,8.266
2023-11-03,10:00:00,8.271
2023-11-03,10:10:00,8.275
2023-11-03,10:20:00,8.274
2023-11-03,10:30:00,8.281
2023-11-03,10:40:00,8.285
2023-11-03,10:50:00,8.287
2023-11-03,11:00:00,8.289
2023-11-03,11:10:00,8.29
2023-11-03,11:20:00,8.292
2023-11-03,11:30:00,8.295
2023-11-03,11:40:00,8.297
2023-11-03,11:50:00,8.302
2023-11-03,12:00:00,8.305
2023-11-03,12:10:00,8.306
2023-11-03,12:20:00,8.309
2023-11-03,12:30:00,8.309
2023-11-03,12:40:00,8.309
2023-11-03,12:50:00,8.313
2023-11-03,13:00:00,8.317
2023-11-03,13:10:00,8.316
2023-11-03,13:20:00,8.32
2023-11-03,13:30:00,8.322
2023-11-03,13:40:00,8.322
2023-11-03,13:50:00,8.322
2023-11-03,14:00:00,8.329
2023-11-03,14:10:00,8.328
2023-11-03,14:20:00,8.331
2023-11-03,14:30:00,8.333
2023-11-03,14:40:00,8.333
2023-11-03,14:50:00,8.337
2023-11-03,15:00:00,8.34
2023-11-03,15:10:00,8.338
2023-11-03,15:20:00,8.341
2023-11-03,15:30:00,8.343
2023-11-03,15:40:00,8.346
2023-11-03,15:50:00,8.35
2023-11-03,16:00:00,8.35
2023-11-03,16:10:00,8.349
2023-11-03,16:20:00,8.353
2023-11-03,16:30:00,8.355
2023-11-03,16:40:00,8.35
2023-11-03,16:50:00,8.358
2023-11-03,17:00:00,8.357
2023-11-03,17:10:00,8.36
2023-11-03,17:20:00,8.363
2023-11-03,17:30:00,8.363
2023-11-03,17:40:00,8.364
2023-11-03,17:50:00,8.369
2023-11-03,18:00:00,8.367
2023-11-03,18:10:00,8.372
2023-11-03,18:20:00,8.376
2023-11-03,18:30:00,8.381
2023-11-03,18:40:00,8.377
2023-11-03,18:50:00,8.382
2023-11-03,19:00:00,8.382
2023-11-03,19:10:00,8.388
2023-11-03,19:20:00,8.384
2023-11-03,19:30:00,8.389
2023-11-03,19:40:00,8.392
2023-11-03,19:50:00,8.395
2023-11-03,20:00:00,8.394
2023-11-03,20:10:00,8.394
2023-11-03,20:20:00,8.397
2023-11-03,20:30:00,8.398
2023-11-03,20:40:00,8.397
2023-11-03,20:50:00,8.401
2023-11-03,21:00:00,8.396
2023-11-03,21:10:00,8.404
2023-11-03,21:20:00,8.404
2023-11-03,21:30:00,8.41
2023-11-03,21:40:00,8.408
2023-11-03,21:50:00,8.409
2023-11-03,22:00:00,8.408
2023-11-03,22:10:00,8.411
2023-11-03,22:20:00,8.412
2023-11-03,22:30:00,8.41
2023-11-03,22:40:00,8.412
2023-11-03,22:50:00,8.408
2023-11-03,23:00:00,8.41
2023-11-03,23:10:00,8.417
2023-11-03,23:20:00,8.417
2023-11-03,23:30:00,8.418
2023-11-03,23:40:00,8.416
2023-11-03,23:50:00,8.421
2023-11-04,00:00:00,8.418
2023-11-04,00:10:00,8.416
2023-11-04,00:20:00,8.422
2023-11-04,00:30:00,8.419
2023-11-04,00:40:00,8.421
2023-11-04,00:50:00,8.419
2023-11-04,01:00:00,8.418
2023-11-04,01:10:00,8.419
2023-11-04,01:20:00,8.422
2023-11-04,01:30:00,8.418
2023-11-04,01:40:00,8.425
2023-11-04,01:50:00,8.422
2023-11-04,02:00:00,8.428
2023-11-04,02:10:00,8.425
2023-11-04,02:20:00,8.423
2023-11-04,02:30:00,8.423
2023-11-04,02:40:00,8.424
2023-11-04,02:50:00,8.419
2023-11-04,03:00:00,8.422
2023-11-04,03:10:00,8.419
2023-11-04,03:20:00,8.422
2023-11-04,03:30:00,8.418
2023-11-04,03:40:00,8.423
2023-11-04,03:50:00,8.423
2023-11-04,04:00:00,8.425
2023-11-04,04:10:00,8.424
2023-11-04,04:20:00,8.424
2023-11-04,04:30:00,8.422
2023-11-04,04:40:00,8.426
2023-11-04,04:50:00,8.421
2023-11-04,05:00:00,8.425
2023-11-04,05:10:00,8.421
2023-11-04,05:20:00,8.419
2023-11-04,05:30:00,8.422
2023-11-04,05:40:00,8.421
2023-11-04,05:50:00,8.421
2023-11-04,06:00:00,8.416
2023-11-04,06:10:00,8.418
2023-11-04,06:20:00,8.421
2023-11-04,06:30:00,8.417
2023-11-04,06:40:00,8.425
2023-11-04,06:50:00,8.423
2023-11-04,07:00:00,8.418
2023-11-04,07:10:00,8.415
2023-11-04,07:20:00,8.415
2023-11-04,07:30:00,8.413
2023-11-04,07:40:00,8.412
2023-11-04,07:50:00,8.416
2023-11-04,08:00:00,8.405
2023-11-04,08:10:00,8.41
2023-11-04,08:20:00,8.411
2023-11-04,08:30:00,8.408
2023-11-04,08:40:00,8.405
2023-11-04,08:50:00,8.406
2023-11-04,09:00:00,8.401
2023-11-04,09:10:00,8.405
2023-11-04,09:20:00,8.404
2023-11-04,09:30:00,8.402
2023-11-04,09:40:00,8.402
2023-11-04,09:50:00,8.401
2023-11-04,10:00:00,8.402
2023-11-04,10:10:00,8.402
2023-11-04,10:20:00,8.398
2023-11-04,10:30:00,8.399
2023-11-04,10:40:00,8.396
2023-11-04,10:50:00,8.398
2023-11-04,11:00:00,8.399
2023-11-04,11:10:00,8.397
2023-11-04,11:20:00,8.394
2023-11-04,11:30:00,8.398
2023-11-04,11:40:00,8.395
2023-11-04,11:50:00,8.394
2023-11-04,12:00:00,8.391
2023-11-04,12:10:00,8.394
2023-11-04,12:20:00,8.388
2023-11-04,12:30:00,8.39
2023-11-04,12:40:00,8.385
2023-11-04,12:50:00,8.389
2023-11-04,13:00:00,8.388
2023-11-04,13:10:00,8.385
2023-11-04,13:20:00,8.385
2023-11-04,13:30:00,8.382
2023-11-04,13:40:00,8.382
2023-11-04,13:50:00,8.385
2023-11-04,14:00:00,8.38
2023-11-04,14:10:00,8.38
2023-11-04,14:20:00,8.381
2023-11-04,14:30:00,8.382
2023-11-04,14:40:00,8.377
2023-11-04,14:50:00,8.376
2023-11-04,15:00:00,8.38
2023-11-04,15:10:00,8.378
2023-11-04,15:20:00,8.375
2023-11-04,15:30:00,8.375
2023-11-04,15:40:00,8.376
2023-11-04,15:50:00,8.372
2023-11-04,16:00:00,8.374
2023-11-04,16:10:00,8.374
2023-11-04,16:20:00,8.369
2023-11-04,16:30:00,8.371
2023-11-04,16:40:00,8.375
2023-11-04,16:50:00,8.371
2023-11-04,17:00:00,8.368
2023-11-04,17:10:00,8.368
2023-11-04,17:20:00,8.371
2023-11-04,17:30:00,8.37
2023-11-04,17:40:00,8.369
2023-11-04,17:50:00,8.365
2023-11-04,18:00:00,8.368
2023-11-04,18:10:00,8.365
2023-11-04,18:20:00,8.364
2023-11-04,18:30:00,8.363
2023-11-04,18:40:00,8.362
2023-11-04,18:50:00,8.364
2023-11-04,19:00:00,8.36
2023-11-04,19:10:00,8.361
2023-11-04,19:20:00,8.358
2023-11-04,19:30:00,8.357
2023-11-04,19:40:00,8.358
2023-11-04,19:50:00,8.357
2023-11-04,20:00:00,8.357
2023-11-04,20:10:00,8.356
2023-11-04,20:20:00,8.356
2023-11-04,20:30:00,8.355
2023-11-04,20:40:00,8.351
2023-11-04,20:50:00,8.355
2023-11-04,21:00:00,8.349
2023-11-04,21:10:00,8.344
2023-11-04,21:20:00,8.35
2023-11-04,21:30:00,8.343
2023-11-04,21:40:00,8.341
2023-11-04,21:50:00,8.342
2023-11-04,22:00:00,8.343
2023-11-04,22:10:00,8.341
2023-11-04,22:20:00,8.34
2023-11-04,22:30:00,8.337
2023-11-04,22:40:00,8.344
2023-11-04,22:50:00,8.337
2023-11-04,23:00:00,8.33
2023-11-04,23:10:00,8.333
2023-11-04,23:20:00,8.329
2023-11-04,23:30:00,8.33
2023-11-04,23:40:00,8.328
2023-11-04,23:50:00,8.328
2023-11-05,00:00:00,8.327
2023-11-05,00:10:00,8.326
2023-11-05,00:20:00,8.324
2023-11-05,00:30:00,8.321
2023-11-05,00:40:00,8.324
2023-11-05,00:50:00,8.316
2023-11-05,01:00:00,8.316
2023-11-05,01:10:00,8.314
2023-11-05,01:20:00,8.314
2023-11-05,01:30:00,8.314
2023-11-05,01:40:00,8.316
2023-11-05,01:50:00,8.308
2023-11-05,02:00:00,8.31
2023-11-05,02:10:00,8.307
2023-11-05,02:20:00,8.303
2023-11-05,02:30:00,8.301
2023-11-05,02:40:00,8.302
2023-11-05,02:50:00,8.302
2023-11-05,03:00:00,8.3
2023-11-05,03:10:00,8.296
2023-11-05,03:20:00,8.295
2023-11-05,03:30:00,8.293
2023-11-05,03:40:00,8.289
2023-11-05,03:50:00,8.283
2023-11-05,04:00:00,8.286
2023-11-05,04:10:00,8.286
2023-11-05,04:20:00,8.283
2023-11-05,04:30:00,8.285
2023-11-05,04:40:00,8.278
2023-11-05,04:50:00,8.274
2023-11-05,05:00:00,8.276
2023-11-05,05:10:00,8.276
2023-11-05,05:20:00,8.268
2023-11-05,05:30:00,8.272
2023-11-05,05:40:00,8.271
2023-11-05,05:50:00,8.266
2023-11-05,06:00:00,8.261
2023-11-05,06:10:00,8.266
2023-11-05,06:20:00,8.26
2023-11-05,06:30:00,8.254
2023-11-05,06:40:00,8.26
2023-11-05,06:50:00,8.254
2023-11-05,07:00:00,8.255
2023-11-05,07:10:00,8.249
2023-11-05,07:20:00,8.245
2023-11-05,07:30:00,8.245
2023-11-05,07:40:00,8.242
2023-11-05,07:50:00,8.24
2023-11-05,08:00:00,8.239
2023-11-05,08:10:00,8.24
2023-11-05,08:20:00,8.233
2023-11-05,08:30:00,8.232
2023-11-05,08:40:00,8.232
2023-11-05,08:50:00,8.225
2023-11-05,09:00:00,8.222
2023-11-05,09:10:00,8.222
2023-11-05,09:20:00,8.219
2023-11-05,09:30:00,8.217
2023-11-05,09:40:00,8.212
2023-11-05,09:50:00,8.211
2023-11-05,10:00:00,8.21
2023-11-05,10:10:00,8.207
2023-11-05,10:20:00,8.208
2023-11-05,10:30:00,8.204
2023-11-05,10:40:00,8.201
2023-11-05,10:50:00,8.199
2023-11-05,11:00:00,8.199
2023-11-05,11:10:00,8.196
2023-11-05,11:20:00,8.197
2023-11-05,11:30:00,8.197
2023-11-05,11:40:00,8.194
2023-11-05,11:50:00,8.19
2023-11-05,12:00:00,8.19
2023-11-05,12:10:00,8.186
2023-11-05,12:20:00,8.187
2023-11-05,12:30:00,8.183
2023-11-05,12:40:00,8.183
2023-11-05,12:50:00,8.18
2023-11-05,13:00:00,8.173
2023-11-05,13:10:00,8.177
2023-11-05,13:20:00,8.172
2023-11-05,13:30:00,8.169
2023-11-05,13:40:00,8.169
2023-11-05,13:50:00,8.166
2023-11-05,14:00:00,8.163
2023-11-05,14:10:00,8.163
2023-11-05,14:20:00,8.16
2023-11-05,14:30:00,8.159
2023-11-05,14:40:00,8.155
2023-11-05,14:50:00,8.156
2023-11-05,15:00:00,8.155
2023-11-05,15:10:00,8.15
2023-11-05,15:20:00,8.149
2023-11-05,15:30:00,8.153
2023-11-05,15:40:00,8.156
2023-11-05,15:50:00,8.156
2023-11-05,16:00:00,8.152
2023-11-05,16:10:00,8.155
2023-11-05,16:20:00,8.147
2023-11-05,16:30:00,8.153
2023-11-05,16:40:00,8.143
2023-11-05,16:50:00,8.142
2023-11-05,17:00:00,8.138
2023-11-05,17:10:00,8.135
2023-11-05,17:20:00,8.136
2023-11-05,17:30:00,8.131
2023-11-05,17:40:00,8.135
2023-11-05,17:50:00,8.126
2023-11-05,18:00:00,8.122
2023-11-05,18:10:00,8.121
2023-11-05,18:20:00,8.126
2023-11-05,18:30:00,8.121
2023-11-05,18:40:00,8.116
2023-11-05,18:50:00,8.115
2023-11-05,19:00:00,8.112
2023-11-05,19:10:00,8.109
2023-11-05,19:20:00,8.105
2023-11-05,19:30:00,8.111
2023-11-05,19:40:00,8.104
2023-11-05,19:50:00,8.099
2023-11-05,20:00:00,8.101
2023-11-05,20:10:00,8.098
2023-11-05,20:20:00,8.097
2023-11-05,20:30:00,8.09
2023-11-05,20:40:00,8.089
2023-11-05,20:50:00,8.089
2023-11-05,21:00:00,8.091
2023-11-05,21:10:00,8.089
2023-11-05,21:20:00,8.082
2023-11-05,21:30:00,8.083
2023-11-05,21:40:00,8.085
2023-11-05,21:50:00,8.078
2023-11-05,22:00:00,8.082
2023-11-05,22:10:00,8.081
2023-11-05,22:20:00,8.075
2023-11-05,22:30:00,8.072
2023-11-05,22:40:00,8.074
2023-11-05,22:50:00,8.072
2023-11-05,23:00:00,8.069
2023-11-05,23:10:00,8.067
2023-11-05,23:20:00,8.058
2023-11-05,23:30:00,8.063
2023-11-05,23:40:00,8.062
2023-11-05,23:50:00,8.06
2023-11-06,00:00:00,8.061
2023-11-06,00:10:00,8.056
2023-11-06,00:20:00,8.054
2023-11-06,00:30:00,8.054
2023-11-06,00:40:00,8.054
2023-11-06,00:50:00,8.054
2023-11-06,01:00:00,8.049
2023-11-06,01:10:00,8.044
2023-11-06,01:20:00,8.048
2023-11-06,01:30:00,8.042
2023-11-06,01:40:00,8.041
2023-11-06,01:50:00,8.04
2023-11-06,02:00:00,8.034
2023-11-06,02:10:00,8.037
2023-11-06,02:20:00,8.028
2023-11-06,02:30:00,8.029
2023-11-06,02:40:00,8.026
2023-11-06,02:50:00,8.024
2023-11-06,03:00:00,8.028
2023-11-06,03:10:00,8.022
2023-11-06,03:20:00,8.023
2023-11-06,03:30:00,8.016
2023-11-06,03:40:00,8.019
2023-11-06,03:50:00,8.016
2023-11-06,04:00:00,8.015
2023-11-06,04:10:00,8.01
2023-11-06,04:20:00,8.01
2023-11-06,04:30:00,8.003
2023-11-06,04:40:00,8.002
2023-11-06,04:50:00,8.003
2023-11-06,05:00:00,8.001
2023-11-06,05:10:00,7.997
2023-11-06,05:20:00,7.993
2023-11-06,05:30:00,7.994
2023-11-06,05:40:00,7.988
2023-11-06,05:50:00,7.986
2023-11-06,06:00:00,7.986
2023-11-06,06:10:00,7.985
2023-11-06,06:20:00,7.982
2023-11-06,06:30:00,7.98
2023-11-06,06:40:00,7.974
2023-11-06,06:50:00,7.975
2023-11-06,07:00:00,7.966
2023-11-06,07:10:00,7.972
2023-11-06,07:20:00,7.966
2023-11-06,07:30:00,7.966
2023-11-06,07:40:00,7.962
2023-11-06,07:50:00,7.96
2023-11-06,08:00:00,7.958
2023-11-06,08:10:00,7.954
2023-11-06,08:20:00,7.952
2023-11-06,08:30:00,7.952
2023-11-06,08:40:00,7.944
2023-11-06,08:50:00,7.945
2023-11-06,09:00:00,7.941
2023-11-06,09:10:00,7.942
2023-11-06,09:20:00,7.934
2023-11-06,09:30:00,7.934
2023-11-06,09:40:00,7.931
2023-11-06,09:50:00,7.927
2023-11-06,10:00:00,7.926
2023-11-06,10:10:00,7.927
2023-11-06,10:20:00,7.925
2023-11-06,10:30:00,7.915
2023-11-06,10:40:00,7.918
2023-11-06,10:50:00,7.912
2023-11-06,11:00:00,7.915
2023-11-06,11:10:00,7.908
2023-11-06,11:20:00,7.903
2023-11-06,11:30:00,7.906
2023-11-06,11:40:00,7.904
2023-11-06,11:50:00,7.899
2023-11-06,12:00:00,7.894
2023-11-06,12:10:00,7.897
2023-11-06,12:20:00,7.892
2023-11-06,12:30:00,7.886
2023-11-06,12:40:00,7.887
2023-11-06,12:50:00,7.883
2023-11-06,13:00:00,7.881
2023-11-06,13:10:00,7.881
2023-11-06,13:20:00,7.873
2023-11-06,13:30:00,7.873
2023-11-06,13:40:00,7.876
2023-11-06,13:50:00,7.867
2023-11-06,14:00:00,7.864
2023-11-06,14:10:00,7.865
2023-11-06,14:20:00,7.863
2023-11-06,14:30:00,7.86
2023-11-06,14:40:00,7.853
2023-11-06,14:50:00,7.855
2023-11-06,15:00:00,7.852
2023-11-06,15:10:00,7.85
2023-11-06,15:20:00,7.847
2023-11-06,15:30:00,7.845
2023-11-06,15:40:00,7.839
2023-11-06,15:50:00,7.838
2023-11-06,16:00:00,7.836
2023-11-06,16:10:00,7.833
2023-11-06,16:20:00,7.832
2023-11-06,16:30:00,7.826
2023-11-06,16:40:00,7.825
2023-11-06,16:50:00,7.816
2023-11-06,17:00:00,7.819
2023-11-06,17:10:00,7.816
2023-11-06,17:20:00,7.809
2023-11-06,17:30:00,7.811
2023-11-06,17:40:00,7.808
2023-11-06,17:50:00,7.792
2023-11-06,18:00:00,7.806
2023-11-06,18:10:00,7.799
2023-11-06,18:20:00,7.804
2023-11-06,18:30:00,7.797
2023-11-06,18:40:00,7.804
2023-11-06,18:50:00,7.798
2023-11-06,19:00:00,7.798
2023-11-06,19:10:00,7.794
2023-11-06,19:20:00,7.794
2023-11-06,19:30:00,7.79
2023-11-06,19:40:00,7.792
2023-11-06,19:50:00,7.787
2023-11-06,20:00:00,7.783
2023-11-06,20:10:00,7.783
2023-11-06,20:20:00,7.776
2023-11-06,20:30:00,7.774
2023-11-06,20:40:00,7.776
2023-11-06,20:50:00,7.768
2023-11-06,21:00:00,7.769
2023-11-06,21:10:00,7.77
2023-11-06,21:20:00,7.762
2023-11-06,21:30:00,7.758
2023-11-06,21:40:00,7.764
2023-11-06,21:50:00,7.76
2023-11-06,22:00:00,7.754
2023-11-06,22:10:00,7.755
2023-11-06,22:20:00,7.753
2023-11-06,22:30:00,7.75
2023-11-06,22:40:00,7.75
2023-11-06,22:50:00,7.744
2023-11-06,23:00:00,7.744
2023-11-06,23:10:00,7.741
2023-11-06,23:20:00,7.74
2023-11-06,23:30:00,7.727
2023-11-06,23:40:00,7.733
2023-11-06,23:50:00,7.734
2023-11-07,00:00:00,7.727
2023-11-07,00:10:00,7.723
2023-11-07,00:20:00,7.722
2023-11-07,00:30:00,7.717
2023-11-07,00:40:00,7.715
2023-11-07,00:50:00,7.715
2023-11-07,01:00:00,7.709
2023-11-07,01:10:00,7.713
2023-11-07,01:20:00,7.705
2023-11-07,01:30:00,7.702
2023-11-07,01:40:00,7.702
2023-11-07,01:50:00,7.696
2023-11-07,02:00:00,7.69
2023-11-07,02:10:00,7.689
2023-11-07,02:20:00,7.688
2023-11-07,02:30:00,7.681
2023-11-07,02:40:00,7.685
2023-11-07,02:50:00,7.678
2023-11-07,03:00:00,7.679
2023-11-07,03:10:00,7.675
2023-11-07,03:20:00,7.667
2023-11-07,03:30:00,7.667
2023-11-07,03:40:00,7.666
2023-11-07,03:50:00,7.667
2023-11-07,04:00:00,7.66
2023-11-07,04:10:00,7.661
2023-11-07,04:20:00,7.656
2023-11-07,04:30:00,7.653
2023-11-07,04:40:00,7.647
2023-11-07,04:50:00,7.646
2023-11-07,05:00:00,7.645
2023-11-07,05:10:00,7.642
2023-11-07,05:20:00,7.64
2023-11-07,05:30:00,7.638
2023-11-07,05:40:00,7.634
2023-11-07,05:50:00,7.628
2023-11-07,06:00:00,7.628
2023-11-07,06:10:00,7.625
2023-11-07,06:20:00,7.621
2023-11-07,06:30:00,7.625
2023-11-07,06:40:00,7.617
2023-11-07,06:50:00,7.617
2023-11-07,07:00:00,7.611
2023-11-07,07:10:00,7.608
2023-11-07,07:20:00,7.605
2023-11-07,07:30:00,7.6
2023-11-07,07:40:00,7.599
2023-11-07,07:50:00,7.596
2023-11-07,08:00:00,7.59
2023-11-07,08:10:00,7.588
2023-11-07,08:20:00,7.586
2023-11-07,08:30:00,7.587
2023-11-07,08:40:00,7.581
2023-11-07,08:50:00,7.58
2023-11-07,09:00:00,7.573
2023-11-07,09:10:00,7.574
2023-11-07,09:20:00,7.569
2023-11-07,09:30:00,7.562
2023-11-07,09:40:00,7.564
2023-11-07,09:50:00,7.562
2023-11-07,10:00:00,7.557